SIMBA11 RJSM-RJSM

Flight info

Callsign SIMBA11
Flight time 0h 8m
Altitude 33000
Route DEVLS GABII
Aircraft F22/M-SGR/C

Departure

Time 2026-05-04 01:45
Airport Misawa Airport / Misawa Air Base (RJSM)

Arrival

Time 2026-05-04 01:53
Airport Misawa Airport / Misawa Air Base (RJSM)
Time Latitude Longitude Altitude Speed Heading
2026-05-04 01:28 40.70501 141.38439 101 ft 0 kts
2026-05-04 01:36 40.70500 141.38455 101 ft 3 kts 158°
2026-05-04 01:36 40.70482 141.38437 101 ft 4 kts 207°
2026-05-04 01:36 40.70471 141.38434 101 ft 0 kts 184°
2026-05-04 01:43 40.70459 141.38433 101 ft 0 kts 183°
2026-05-04 01:43 40.70424 141.38537 101 ft 19 kts 96°
2026-05-04 01:43 40.70328 141.38625 100 ft 28 kts 186°
2026-05-04 01:44 40.70263 141.38614 100 ft 2 kts 187°
2026-05-04 01:44 40.70260 141.38613 99 ft 0 kts 187°
2026-05-04 01:44 40.70215 141.38588 98 ft 24 kts 238°
2026-05-04 01:45 40.70217 141.38369 101 ft 96 kts 275°
2026-05-04 01:45 40.70356 141.36250 261 ft 304 kts 275°
2026-05-04 01:45 40.70825 141.30108 3370 ft 269 kts 273°
2026-05-04 01:46 40.71069 141.27748 3013 ft 256 kts 273°
2026-05-04 01:46 40.71302 141.25463 2618 ft 243 kts 273°
2026-05-04 01:46 40.71550 141.23211 1727 ft 256 kts 278°
2026-05-04 01:46 40.71970 141.20998 1083 ft 237 kts 264°
2026-05-04 01:47 40.71369 141.19100 146 ft 229 kts 231°
2026-05-04 01:47 40.70380 141.17512 233 ft 207 kts 234°
2026-05-04 01:47 40.69889 141.15489 315 ft 269 kts 263°
2026-05-04 01:47 40.69744 141.13826 1479 ft 196 kts 257°
2026-05-04 01:48 40.69498 141.11641 1753 ft 268 kts 278°
2026-05-04 01:48 40.70374 141.09548 6511 ft 161 kts 295°
2026-05-04 01:48 40.70555 141.10194 13385 ft 288 kts 117°
2026-05-04 01:48 40.70064 141.12853 13080 ft 292 kts 116°
2026-05-04 01:49 40.69651 141.15341 12789 ft 270 kts 115°
2026-05-04 01:49 40.69315 141.17753 12171 ft 265 kts 109°
2026-05-04 01:49 40.69216 141.19957 11117 ft 188 kts 18°
2026-05-04 01:49 40.70329 141.21578 9556 ft 332 kts 44°
2026-05-04 01:50 40.72081 141.24001 8791 ft 366 kts 41°
2026-05-04 01:50 40.73878 141.26310 8042 ft 363 kts 40°
2026-05-04 01:50 40.75720 141.28571 7326 ft 359 kts 39°
2026-05-04 01:50 40.76365 141.31050 6566 ft 278 kts 99°
2026-05-04 01:51 40.76250 141.33617 5717 ft 289 kts 98°
2026-05-04 01:51 40.76085 141.36303 4773 ft 298 kts 106°
2026-05-04 01:51 40.75726 141.39056 3863 ft 308 kts 104°
2026-05-04 01:51 40.75139 141.41740 3082 ft 301 kts 123°
2026-05-04 01:52 40.73885 141.43541 2669 ft 229 kts 171°
2026-05-04 01:52 40.72989 141.43562 2391 ft 178 kts 210°
2026-05-04 01:52 40.71927 141.42926 1403 ft 162 kts 209°
2026-05-04 01:52 40.70694 141.41982 769 ft 155 kts 224°
2026-05-04 01:53 40.70101 141.40705 455 ft 172 kts 263°
2026-05-04 01:53 40.70128 141.39663 238 ft 169 kts 274°
2026-05-04 01:53 40.70224 141.38179 103 ft 154 kts 276°
2026-05-04 01:53 40.70322 141.36961 109 ft 36 kts 310°
2026-05-04 01:54 40.70408 141.36947 109 ft 18 kts
2026-05-04 01:54 40.70523 141.36981 109 ft 9 kts 54°
2026-05-04 01:54 40.70525 141.37074 108 ft 12 kts 95°
2026-05-04 01:54 40.70517 141.37199 108 ft 14 kts 86°
2026-05-04 01:55 40.70570 141.37230 108 ft 0 kts